Weather History for Fort Leonard Wood, MO

Change the Weather History Date:

Friday, September 20, 2013

  Actual Average Record
Temperature  
Mean Temperature 64 °F -  
Max Temperature 72 °F 75 °F 88 °F (2010)
Min Temperature 54 °F 56 °F 42 °F (2006)
Degree Days  
Heating Degree Days 2    
Growing Degree Days 14 (Base 50)    
Moisture  
Dew Point 66 °F    
Average Humidity 97    
Maximum Humidity 100    
Minimum Humidity 78    
Precipitation  
Precipitation 1.52 in - - ()
Sea Level Pressure  
Sea Level Pressure 29.96 in    
Wind  
Wind Speed 7 mph (WNW)    
Max Wind Speed 15 mph    
Max Gust Speed 24 mph    
Visibility 8 miles    
Events Rain , Thunderstorm    
Averages and records for this station are not official NWS values.
T = Trace of Precipitation, MM = Missing Value Source: NWS Daily Summary

Daily Weather History Graph

Daily Weather History Graph

Search for Another Location

Airport:

Trip Planner

Search our weather history database for the weather conditions in past years. The results will help you decide how hot, cold, wet, or windy it might be!

Date:

Astronomy

Sep. 20, 2013 Rise Set
Actual Time 6:54 AM CDT 7:08 PM CDT
Civil Twilight 6:28 AM CDT 7:34 PM CDT
Nautical Twilight 5:57 AM CDT 8:05 PM CDT
Astronomical Twilight 5:26 AM CDT 8:36 PM CDT
Moon 7:45 PM CDT (9/20) 8:07 AM CDT (9/20)
Length of Visible Light 13h 05m
Length of Day
12h 13m
Full, 98% of the Moon is Illuminated
Sep 20
Full
Sep 26
Last Quarter
Oct 4
New
Oct 11
First Quarter
Oct 18
Full

Hourly Weather History & Observations

Time (CDT) Temp. Dew Point Humidity Pressure Visibility Wind Dir Wind Speed Gust Speed Precip Events Conditions
12:58 AM 71.2 °F 69.6 °F 95% 29.94 in 10.0 mi West 5.8 mph - N/A   Scattered Clouds
1:08 AM 71.6 °F 69.8 °F 94% 29.97 in 10.0 mi West 9.2 mph 24.2 mph N/A Thunderstorm Light Drizzle
1:18 AM 71.6 °F 69.8 °F 94% 29.98 in 9.0 mi WNW 8.1 mph 23.0 mph N/A Rain , Thunderstorm Light Rain
1:23 AM 69.8 °F 69.8 °F 100% 29.99 in 3.0 mi WNW 11.5 mph 24.2 mph N/A Rain , Thunderstorm Rain
1:28 AM 69.8 °F 69.8 °F 100% 29.98 in 1.0 mi NW 10.4 mph 24.2 mph N/A Rain , Thunderstorm Heavy Rain
1:31 AM 68.0 °F 68.0 °F 100% 29.98 in 0.8 mi WNW 10.4 mph 20.7 mph N/A Rain , Thunderstorm Heavy Thunderstorms and Rain
1:46 AM 68.0 °F 68.0 °F 100% 29.98 in 1.0 mi Variable 5.8 mph - N/A Rain , Thunderstorm Heavy Thunderstorms and Rain
1:51 AM 68.0 °F 68.0 °F 100% 29.99 in 1.2 mi Variable 4.6 mph - N/A Rain , Thunderstorm Heavy Thunderstorms and Rain
1:52 AM 68.0 °F 68.0 °F 100% 29.99 in 1.0 mi Variable 4.6 mph - N/A Rain , Thunderstorm Heavy Rain
1:57 AM 68.0 °F 68.0 °F 100% 29.98 in 1.5 mi West 4.6 mph - N/A Rain Heavy Rain
1:58 AM 68.0 °F 68.0 °F 100% 29.96 in 1.5 mi West 3.5 mph - 0.83 in Rain Heavy Rain
2:03 AM 68.0 °F 68.0 °F 100% 29.98 in 1.8 mi Variable 2.3 mph - N/A Rain Heavy Rain
2:08 AM 68.0 °F 68.0 °F 100% 29.98 in 2.5 mi NNW 1.2 mph - N/A Rain Rain
2:13 AM 68.0 °F 68.0 °F 100% 29.98 in 3.0 mi Calm Calm - N/A Rain Rain
2:38 AM 68.0 °F 68.0 °F 100% 29.98 in 4.0 mi South 4.6 mph - N/A Rain Heavy Rain
2:43 AM 68.0 °F 68.0 °F 100% 29.97 in 4.0 mi SSE 3.5 mph - N/A Rain Heavy Rain
2:58 AM 67.8 °F 67.8 °F 100% 29.94 in 6.0 mi SE 4.6 mph - 0.24 in Rain Rain
3:58 AM 67.5 °F 67.5 °F 100% 29.94 in 7.0 mi South 3.5 mph - 0.20 in Rain Rain
4:58 AM 67.3 °F 67.3 °F 100% 29.92 in 7.0 mi West 4.6 mph - 0.15 in Rain Light Rain
5:58 AM 67.1 °F 67.1 °F 100% 29.91 in 10.0 mi Variable 5.8 mph - 0.01 in Rain Light Rain
6:48 AM 68.0 °F 68.0 °F 100% 29.93 in 10.0 mi WSW 5.8 mph - N/A Rain Light Rain
6:53 AM 68.0 °F 68.0 °F 100% 29.94 in 10.0 mi Variable 5.8 mph - N/A Rain Light Rain
6:58 AM 67.3 °F 67.3 °F 100% 29.93 in 10.0 mi Variable 5.8 mph - 0.04 in   Drizzle
7:23 AM 68.0 °F 68.0 °F 100% 29.95 in 10.0 mi West 4.6 mph - N/A   Light Drizzle
7:28 AM 68.0 °F 68.0 °F 100% 29.95 in 10.0 mi Variable 4.6 mph - N/A   Light Drizzle
7:35 AM 68.0 °F 68.0 °F 100% 29.94 in 10.0 mi Variable 5.8 mph - N/A   Overcast
7:50 AM 68.0 °F 68.0 °F 100% 29.95 in 10.0 mi West 5.8 mph - N/A   Overcast
7:52 AM 68.0 °F 68.0 °F 100% 29.95 in 10.0 mi West 4.6 mph - N/A   Light Drizzle
7:58 AM 67.6 °F 67.6 °F 100% 29.94 in 10.0 mi West 4.6 mph - 0.01 in   Light Drizzle
8:58 AM 68.2 °F 68.2 °F 100% 29.94 in 10.0 mi West 3.5 mph - 0.02 in Rain Light Rain
9:18 AM 68.0 °F 68.0 °F 100% 29.96 in 10.0 mi WNW 5.8 mph - N/A   Light Drizzle
9:33 AM 68.0 °F 68.0 °F 100% 29.96 in 10.0 mi WNW 4.6 mph - N/A   Light Drizzle
9:58 AM 68.7 °F 68.7 °F 100% 29.94 in 10.0 mi NW 6.9 mph - 0.01 in   Light Drizzle
10:18 AM 68.0 °F 68.0 °F 100% 29.96 in 10.0 mi NW 8.1 mph - N/A   Light Drizzle
10:33 AM 68.0 °F 68.0 °F 100% 29.97 in 10.0 mi NW 9.2 mph - N/A   Light Drizzle
10:34 AM 68.0 °F 68.0 °F 100% 29.97 in 10.0 mi NW 10.4 mph - N/A   Overcast
10:39 AM 68.0 °F 68.0 °F 100% 29.97 in 10.0 mi NW 8.1 mph - N/A   Overcast
10:58 AM 67.8 °F 67.8 °F 100% 29.96 in 8.0 mi NNW 11.5 mph - 0.01 in   Overcast
11:08 AM 68.0 °F 68.0 °F 100% 29.98 in 10.0 mi NNW 15.0 mph - N/A   Overcast
11:13 AM 66.2 °F 66.2 °F 100% 29.98 in 10.0 mi NW 13.8 mph - N/A   Overcast
11:28 AM 66.2 °F 66.2 °F 100% 29.98 in 10.0 mi NW 6.9 mph - N/A   Overcast
11:58 AM 66.7 °F 66.7 °F 100% 29.98 in 10.0 mi NW 8.1 mph - N/A   Overcast
12:28 PM 66.2 °F 66.2 °F 100% 29.99 in 10.0 mi NNW 8.1 mph - N/A   Overcast
12:43 PM 66.2 °F 66.2 °F 100% 29.98 in 10.0 mi NNW 9.2 mph - N/A   Overcast
12:53 PM 66.2 °F 66.2 °F 100% 29.99 in 10.0 mi NW 10.4 mph - N/A   Overcast
12:58 PM 65.8 °F 65.3 °F 98% 29.98 in 10.0 mi NW 10.4 mph - N/A   Overcast
1:03 PM 66.2 °F 64.4 °F 94% 29.99 in 10.0 mi NNW 11.5 mph - N/A   Overcast
1:08 PM 66.2 °F 64.4 °F 94% 29.98 in 10.0 mi NW 11.5 mph - N/A   Overcast
1:18 PM 66.2 °F 64.4 °F 94% 29.98 in 10.0 mi NW 8.1 mph - N/A   Mostly Cloudy
1:23 PM 66.2 °F 64.4 °F 94% 29.98 in 10.0 mi NW 11.5 mph - N/A   Mostly Cloudy
1:33 PM 66.2 °F 62.6 °F 88% 29.98 in 10.0 mi NW 12.7 mph - N/A   Mostly Cloudy
1:53 PM 66.2 °F 62.6 °F 88% 29.98 in 10.0 mi NW 6.9 mph - N/A   Mostly Cloudy
1:58 PM 66.2 °F 63.0 °F 89% 29.97 in 10.0 mi NW 8.1 mph - N/A   Mostly Cloudy
2:58 PM 65.5 °F 61.2 °F 86% 29.95 in 10.0 mi NW 6.9 mph - N/A   Mostly Cloudy
3:58 PM 66.7 °F 60.8 °F 81% 29.94 in 10.0 mi WNW 5.8 mph - N/A   Scattered Clouds
4:58 PM 66.4 °F 59.4 °F 78% 29.93 in 10.0 mi NW 6.9 mph - N/A   Partly Cloudy
5:58 PM 65.1 °F 59.7 °F 83% 29.93 in 10.0 mi NW 3.5 mph - N/A   Clear
6:58 PM 62.8 °F 61.2 °F 94% 29.92 in 10.0 mi West 1.2 mph - N/A   Clear
7:58 PM 60.8 °F 60.3 °F 98% 29.94 in 10.0 mi WNW 2.3 mph - N/A   Clear
8:58 PM 59.9 °F 59.5 °F 99% 29.96 in 10.0 mi NW 4.6 mph - N/A   Clear
9:58 PM 58.6 °F 58.3 °F 99% 29.96 in 10.0 mi NW 5.8 mph - N/A   Clear
10:58 PM 56.8 °F 56.1 °F 97% 29.97 in 10.0 mi NW 3.5 mph - N/A   Clear
11:58 PM 54.5 °F 54.5 °F 100% 29.96 in 10.0 mi NW 3.5 mph - N/A   Clear